owner,sensor,date,latitude,longitude,vertical_datum,wind_speed,wind_to_direction,wind_speed_of_gust,qcFlag 
TABS,ioos:station:wmo:42045:1,2012-05-01T00:00:00Z,26.2168,-96.4998,4.0,0.254950976,101.3103269,1.51,'11111222,11111222,11111222' 
TABS,ioos:station:wmo:42045:1,2012-05-01T00:30:00Z,26.2168,-96.4998,4.0,0.264007576,114.6239281,1.47,'11111222,11111222,11111222' 
TABS,ioos:station:wmo:42045:1,2012-05-01T01:00:00Z,26.2168,-96.4998,4.0,0.080622577,82.8745794,1.71,'11111222,11111222,11111222' 
TABS,ioos:station:wmo:42045:1,2012-05-01T01:30:00Z,26.2168,-96.4998,4.0,0.200997512,95.7110007,1.09,'11111222,11111222,11111222' 
TABS,ioos:station:wmo:42045:1,2012-05-01T02:00:00Z,26.2168,-96.4998,4.0,0.184390889,102.5291993,1.23,'11111222,11111222,11111222' 
TABS,ioos:station:wmo:42045:1,2012-05-01T02:30:00Z,26.2168,-96.4998,4.0,0.160312195,93.57674693,1.44,'11111222,11111222,11111222' 
TABS,ioos:station:wmo:42045:1,2012-05-01T03:00:00Z,26.2168,-96.4998,4.0,0.21023796,92.72672554,1.2,'11111222,11111222,11111222' 
TABS,ioos:station:wmo:42045:1,2012-05-01T03:30:00Z,26.2168,-96.4998,4.0,0.152315462,113.1989572,1.49,'11111222,11111222,11111222' 
TABS,ioos:station:wmo:42045:1,2012-05-01T04:00:00Z,26.2168,-96.4998,4.0,0.080622577,82.8745794,1.0,'11111222,11111222,11111222' 
TABS,ioos:station:wmo:42045:1,2012-05-01T04:30:00Z,26.2168,-96.4998,4.0,0.161245155,97.1254206,0.87,'11111222,11111222,11111222' 
TABS,ioos:station:wmo:42045:1,2012-05-01T05:00:00Z,26.2168,-96.4998,4.0,0.092195445,102.5291993,1.21,'11111222,11111222,11111222' 
TABS,ioos:station:wmo:42045:1,2012-05-01T05:30:00Z,26.2168,-96.4998,4.0,0.036055513,236.3100113,1.3,'11111222,11111222,11111222' 
TABS,ioos:station:wmo:42045:1,2012-05-01T06:00:00Z,26.2168,-96.4998,4.0,0.215870331,256.6075336,1.3,'11111222,11111222,11111222' 
TABS,ioos:station:wmo:42045:1,2012-05-01T06:30:00Z,26.2168,-96.4998,4.0,0.300665928,93.81448683,1.38,'11111222,11111222,11111222' 
TABS,ioos:station:wmo:42045:1,2012-05-01T07:00:00Z,26.2168,-96.4998,4.0,0.272946881,98.42737023,1.47,'11111222,11111222,11111222' 
TABS,ioos:station:wmo:42045:1,2012-05-01T07:30:00Z,26.2168,-96.4998,4.0,0.145602198,105.9457795,1.18,'11111222,11111222,11111222' 
TABS,ioos:station:wmo:42045:1,2012-05-01T08:00:00Z,26.2168,-96.4998,4.0,0.070710678,98.13050426,0.97,'11111222,11111222,11111222' 
TABS,ioos:station:wmo:42045:1,2012-05-01T08:30:00Z,26.2168,-96.4998,4.0,0.373363094,97.69645464,1.57,'11111222,11111222,11111222' 
TABS,ioos:station:wmo:42045:1,2012-05-01T09:00:00Z,26.2168,-96.4998,4.0,0.201246118,116.56541,1.49,'11111222,11111222,11111222' 
TABS,ioos:station:wmo:42045:1,2012-05-01T09:30:00Z,26.2168,-96.4998,4.0,0.131529464,98.74656273,1.52,'11111222,11111222,11111222' 
TABS,ioos:station:wmo:42045:1,2012-05-01T10:00:00Z,26.2168,-96.4998,4.0,0.404969135,110.2252331,1.97,'11111222,11111222,11111222' 
TABS,ioos:station:wmo:42045:1,2012-05-01T10:30:00Z,26.2168,-96.4998,4.0,0.272946881,118.443283,1.71,'11111222,11111222,11111222' 
TABS,ioos:station:wmo:42045:1,2012-05-01T11:00:00Z,26.2168,-96.4998,4.0,0.228254244,118.8111473,1.71,'11111222,11111222,11111222' 
TABS,ioos:station:wmo:42045:1,2012-05-01T11:30:00Z,26.2168,-96.4998,4.0,0.170293864,86.63312629,1.5,'11111222,11111222,11111222' 
TABS,ioos:station:wmo:42045:1,2012-05-01T12:00:00Z,26.2168,-96.4998,4.0,0.236008474,53.61531235,1.25,'11111222,11111222,11111222' 
TABS,ioos:station:wmo:42045:1,2012-05-01T12:30:00Z,26.2168,-96.4998,4.0,0.228473193,66.80104282,1.76,'11111222,11111222,11111222' 
TABS,ioos:station:wmo:42045:1,2012-05-01T13:00:00Z,26.2168,-96.4998,4.0,0.215870331,103.3928874,1.6,'11111222,11111222,11111222' 
TABS,ioos:station:wmo:42045:1,2012-05-01T13:30:00Z,26.2168,-96.4998,4.0,0.445533388,260.9605383,2.68,'11111222,11111222,11111222' 
TABS,ioos:station:wmo:42045:1,2012-05-01T14:00:00Z,26.2168,-96.4998,4.0,0.280178515,267.9545963,2.54,'11111222,11111222,11111222' 
TABS,ioos:station:wmo:42045:1,2012-05-01T14:30:00Z,26.2168,-96.4998,4.0,0.281602557,96.11591018,1.96,'11111222,11111222,11111222' 
TABS,ioos:station:wmo:42045:1,2012-05-01T15:00:00Z,26.2168,-96.4998,4.0,0.161554944,111.8017794,3.22,'11111222,11111222,11111222' 
TABS,ioos:station:wmo:42045:1,2012-05-01T15:30:00Z,26.2168,-96.4998,4.0,0.18973666,251.5650943,1.92,'11111222,11111222,11111222' 
TABS,ioos:station:wmo:42045:1,2012-05-01T16:00:00Z,26.2168,-96.4998,4.0,0.060827625,80.537279,2.14,'11111222,11111222,11111222' 
TABS,ioos:station:wmo:42045:1,2012-05-01T16:30:00Z,26.2168,-96.4998,4.0,0.177200451,253.610498,1.84,'11111222,11111222,11111222' 
TABS,ioos:station:wmo:42045:1,2012-05-01T17:00:00Z,26.2168,-96.4998,4.0,0.1,216.8700219,2.07,'11111222,11111222,11111222' 
TABS,ioos:station:wmo:42045:1,2012-05-01T17:30:00Z,26.2168,-96.4998,4.0,0.286356421,102.0951497,1.93,'11111222,11111222,11111222' 
TABS,ioos:station:wmo:42045:1,2012-05-01T18:00:00Z,26.2168,-96.4998,4.0,0.360555128,266.8201773,2.48,'11111222,11111222,11111222' 
TABS,ioos:station:wmo:42045:1,2012-05-01T18:30:00Z,26.2168,-96.4998,4.0,0.22090722,264.8055832,3.04,'11111222,11111222,11111222' 
TABS,ioos:station:wmo:42045:1,2012-05-01T19:00:00Z,26.2168,-96.4998,4.0,0.152970585,101.3103269,3.19,'11111222,11111222,11111222' 
TABS,ioos:station:wmo:42045:1,2012-05-01T19:30:00Z,26.2168,-96.4998,4.0,0.089442719,116.56541,2.61,'11111222,11111222,11111222' 
TABS,ioos:station:wmo:42045:1,2012-05-01T20:00:00Z,26.2168,-96.4998,4.0,0.465295605,98.65294248,2.68,'11111222,11111222,11111222' 
TABS,ioos:station:wmo:42045:1,2012-05-01T20:30:00Z,26.2168,-96.4998,4.0,0.126491106,108.4353266,2.2,'11111222,11111222,11111222' 
TABS,ioos:station:wmo:42045:1,2012-05-01T21:00:00Z,26.2168,-96.4998,4.0,0.320156212,104.4706812,1.74,'11111222,11111222,11111222' 
TABS,ioos:station:wmo:42045:1,2012-05-01T21:30:00Z,26.2168,-96.4998,4.0,0.125299641,118.6108137,2.11,'11111222,11111222,11111222' 
TABS,ioos:station:wmo:42045:1,2012-05-02T00:00:00Z,26.2168,-96.4998,4.0,0.301496269,84.2889993,1.72,'11111222,11111222,11111222' 
TABS,ioos:station:wmo:42045:1,2012-05-02T00:30:00Z,26.2168,-96.4998,4.0,0.254950976,101.3103269,1.77,'11111222,11111222,11111222' 
TABS,ioos:station:wmo:42045:1,2012-05-02T01:00:00Z,26.2168,-96.4998,4.0,0.250599282,118.6108137,1.66,'11111222,11111222,11111222' 
TABS,ioos:station:wmo:42045:1,2012-05-02T01:30:00Z,26.2168,-96.4998,4.0,0.158113883,108.4353266,1.71,'11111222,11111222,11111222' 
TABS,ioos:station:wmo:42045:1,2012-05-02T02:00:00Z,26.2168,-96.4998,4.0,0.114017543,105.2555039,1.08,'11111222,11111222,11111222' 
TABS,ioos:station:wmo:42045:1,2012-05-02T02:30:00Z,26.2168,-96.4998,4.0,0.194164878,101.8890512,1.34,'11111222,11111222,11111222' 
TABS,ioos:station:wmo:42045:1,2012-05-02T03:00:00Z,26.2168,-96.4998,4.0,0.213775583,100.7846936,1.46,'11111222,11111222,11111222' 
TABS,ioos:station:wmo:42045:1,2012-05-02T03:30:00Z,26.2168,-96.4998,4.0,0.196977156,113.9628539,1.17,'11111222,11111222,11111222' 
TABS,ioos:station:wmo:42045:1,2012-05-02T04:00:00Z,26.2168,-96.4998,4.0,0.070710678,98.13050426,1.15,'11111222,11111222,11111222' 
TABS,ioos:station:wmo:42045:1,2012-05-02T04:30:00Z,26.2168,-96.4998,4.0,0.090553851,96.34059784,2.25,'11111222,11111222,11111222' 
TABS,ioos:station:wmo:42045:1,2012-05-02T05:00:00Z,26.2168,-96.4998,4.0,0.172626765,100.0083773,1.21,'11111222,11111222,11111222' 
TABS,ioos:station:wmo:42045:1,2012-05-02T05:30:00Z,26.2168,-96.4998,4.0,0.160312195,93.57674693,1.41,'11111222,11111222,11111222' 
TABS,ioos:station:wmo:42045:1,2012-05-02T06:00:00Z,26.2168,-96.4998,4.0,0.22,90.00042092,1.89,'11111222,11111222,11111222' 
TABS,ioos:station:wmo:42045:1,2012-05-02T06:30:00Z,26.2168,-96.4998,4.0,0.067082039,116.56541,1.5,'11111222,11111222,11111222' 
TABS,ioos:station:wmo:42045:1,2012-05-02T07:00:00Z,26.2168,-96.4998,4.0,0.170293864,93.36687371,1.2,'11111222,11111222,11111222' 
TABS,ioos:station:wmo:42045:1,2012-05-02T07:30:00Z,26.2168,-96.4998,4.0,0.1,90.00042092,2.1,'11111222,11111222,11111222' 
TABS,ioos:station:wmo:42045:1,2012-05-02T08:00:00Z,26.2168,-96.4998,4.0,0.082462113,255.9637894,1.78,'11111222,11111222,11111222' 
TABS,ioos:station:wmo:42045:1,2012-05-02T08:30:00Z,26.2168,-96.4998,4.0,0.04,270.0,1.45,'11111222,11111222,11111222' 
TABS,ioos:station:wmo:42045:1,2012-05-02T09:00:00Z,26.2168,-96.4998,4.0,0.041231056,75.96336844,1.2,'11111222,11111222,11111222' 
TABS,ioos:station:wmo:42045:1,2012-05-02T09:30:00Z,26.2168,-96.4998,4.0,0.199248588,252.4744726,0.92,'11111222,11111222,11111222' 
TABS,ioos:station:wmo:42045:1,2012-05-02T10:00:00Z,26.2168,-96.4998,4.0,0.089442719,116.56541,1.78,'11111222,11111222,11111222' 
TABS,ioos:station:wmo:42045:1,2012-05-02T10:30:00Z,26.2168,-96.4998,4.0,0.2,270.0,1.68,'11111222,11111222,11111222' 
TABS,ioos:station:wmo:42045:1,2012-05-02T11:00:00Z,26.2168,-96.4998,4.0,0.281602557,263.8845107,1.61,'11111222,11111222,11111222' 
TABS,ioos:station:wmo:42045:1,2012-05-02T11:30:00Z,26.2168,-96.4998,4.0,0.1,90.00042092,1.09,'11111222,11111222,11111222' 
TABS,ioos:station:wmo:42045:1,2012-05-02T12:00:00Z,26.2168,-96.4998,4.0,0.290688837,266.054823,1.12,'11111222,11111222,11111222' 
TABS,ioos:station:wmo:42045:1,2012-05-02T12:30:00Z,26.2168,-96.4998,4.0,0.210950231,238.5705079,1.84,'11111222,11111222,11111222' 
TABS,ioos:station:wmo:42045:1,2012-05-02T13:00:00Z,26.2168,-96.4998,4.0,0.22,90.00042092,1.52,'11111222,11111222,11111222' 
TABS,ioos:station:wmo:42045:1,2012-05-02T13:30:00Z,26.2168,-96.4998,4.0,0.121655251,99.462721,2.29,'11111222,11111222,11111222' 
TABS,ioos:station:wmo:42045:1,2012-05-02T14:00:00Z,26.2168,-96.4998,4.0,0.148660687,109.654199,2.02,'11111222,11111222,11111222' 
TABS,ioos:station:wmo:42045:1,2012-05-02T14:30:00Z,26.2168,-96.4998,4.0,0.200997512,264.2894202,2.33,'11111222,11111222,11111222' 
TABS,ioos:station:wmo:42045:1,2012-05-02T15:00:00Z,26.2168,-96.4998,4.0,0.072801099,164.0548518,2.25,'11111222,11111222,11111222' 
TABS,ioos:station:wmo:42045:1,2012-05-02T15:30:00Z,26.2168,-96.4998,4.0,0.555787729,261.7241265,3.06,'11111222,11111222,11111222' 
TABS,ioos:station:wmo:42045:1,2012-05-02T16:00:00Z,26.2168,-96.4998,4.0,0.946414286,263.3255466,2.73,'11111222,11111222,11111222' 
TABS,ioos:station:wmo:42045:1,2012-05-02T16:30:00Z,26.2168,-96.4998,4.0,0.905538514,263.6598231,3.12,'11111222,11111222,11111222' 
TABS,ioos:station:wmo:42045:1,2012-05-02T17:00:00Z,26.2168,-96.4998,4.0,1.195198728,260.852941,3.54,'11111222,11111222,11111222' 
TABS,ioos:station:wmo:42045:1,2012-05-02T17:30:00Z,26.2168,-96.4998,4.0,0.541294744,258.2749154,2.63,'11111222,11111222,11111222' 
TABS,ioos:station:wmo:42045:1,2012-05-02T18:00:00Z,26.2168,-96.4998,4.0,0.861452262,266.6726035,2.4,'11111222,11111222,11111222' 
TABS,ioos:station:wmo:42045:1,2012-05-02T18:30:00Z,26.2168,-96.4998,4.0,0.682641927,264.9575607,2.38,'11111222,11111222,11111222' 
TABS,ioos:station:wmo:42045:1,2012-05-02T19:00:00Z,26.2168,-96.4998,4.0,0.067082039,153.4352214,1.61,'11111222,11111222,11111222' 
TABS,ioos:station:wmo:42045:1,2012-05-02T19:30:00Z,26.2168,-96.4998,4.0,0.351283361,94.89950191,1.62,'11111222,11111222,11111222' 
TABS,ioos:station:wmo:42045:1,2012-05-02T20:00:00Z,26.2168,-96.4998,4.0,0.060827625,279.4623001,1.65,'11111222,11111222,11111222' 
TABS,ioos:station:wmo:42045:1,2012-05-02T20:30:00Z,26.2168,-96.4998,4.0,0.136014705,252.897311,1.99,'11111222,11111222,11111222' 
TABS,ioos:station:wmo:42045:1,2012-05-02T21:00:00Z,26.2168,-96.4998,4.0,0.111803399,79.69475671,1.58,'11111222,11111222,11111222' 
TABS,ioos:station:wmo:42045:1,2012-05-02T21:30:00Z,26.2168,-96.4998,4.0,0.401995025,264.2894202,2.91,'11111222,11111222,11111222' 
TABS,ioos:station:wmo:42045:1,2012-05-03T00:00:00Z,26.2168,-96.4998,4.0,0.060827625,99.462721,1.64,'11111222,11111222,11111222' 
TABS,ioos:station:wmo:42045:1,2012-05-03T00:30:00Z,26.2168,-96.4998,4.0,0.298328678,103.5708236,1.29,'11111222,11111222,11111222' 
TABS,ioos:station:wmo:42045:1,2012-05-03T01:00:00Z,26.2168,-96.4998,4.0,0.121655251,99.462721,0.99,'11111222,11111222,11111222' 
TABS,ioos:station:wmo:42045:1,2012-05-03T01:30:00Z,26.2168,-96.4998,4.0,0.121655251,99.462721,0.83,'11111222,11111222,11111222' 
TABS,ioos:station:wmo:42045:1,2012-05-03T02:00:00Z,26.2168,-96.4998,4.0,0.114017543,105.2555039,0.76,'11111222,11111222,11111222' 
TABS,ioos:station:wmo:42045:1,2012-05-03T02:30:00Z,26.2168,-96.4998,4.0,0.221359436,108.4353266,1.13,'11111222,11111222,11111222' 
TABS,ioos:station:wmo:42045:1,2012-05-03T03:00:00Z,26.2168,-96.4998,4.0,0.162788206,79.37994864,1.35,'11111222,11111222,11111222' 
TABS,ioos:station:wmo:42045:1,2012-05-03T03:30:00Z,26.2168,-96.4998,4.0,0.41,102.6807748,1.56,'11111222,11111222,11111222' 
TABS,ioos:station:wmo:42045:1,2012-05-03T04:00:00Z,26.2168,-96.4998,4.0,0.161245155,82.8745794,1.79,'11111222,11111222,11111222' 
TABS,ioos:station:wmo:42045:1,2012-05-03T04:30:00Z,26.2168,-96.4998,4.0,0.290688837,86.05440208,1.82,'11111222,11111222,11111222' 
TABS,ioos:station:wmo:42045:1,2012-05-03T05:00:00Z,26.2168,-96.4998,4.0,0.041231056,75.96336844,1.75,'11111222,11111222,11111222' 
TABS,ioos:station:wmo:42045:1,2012-05-03T05:30:00Z,26.2168,-96.4998,4.0,0.362215406,263.6598231,1.38,'11111222,11111222,11111222' 
TABS,ioos:station:wmo:42045:1,2012-05-03T06:00:00Z,26.2168,-96.4998,4.0,0.312569992,262.6476378,1.1,'11111222,11111222,11111222' 
TABS,ioos:station:wmo:42045:1,2012-05-03T06:30:00Z,26.2168,-96.4998,4.0,0.254950976,258.690094,1.19,'11111222,11111222,11111222' 
TABS,ioos:station:wmo:42045:1,2012-05-03T07:00:00Z,26.2168,-96.4998,4.0,0.036055513,213.6901992,0.87,'11111222,11111222,11111222' 
TABS,ioos:station:wmo:42045:1,2012-05-03T07:30:00Z,26.2168,-96.4998,4.0,0.141421356,261.8699167,1.42,'11111222,11111222,11111222' 
TABS,ioos:station:wmo:42045:1,2012-05-03T08:00:00Z,26.2168,-96.4998,4.0,0.31144823,264.4724728,1.29,'11111222,11111222,11111222' 
TABS,ioos:station:wmo:42045:1,2012-05-03T08:30:00Z,26.2168,-96.4998,4.0,0.584208867,263.1182925,2.06,'11111222,11111222,11111222' 
TABS,ioos:station:wmo:42045:1,2012-05-03T09:00:00Z,26.2168,-96.4998,4.0,0.314006369,260.8376744,1.45,'11111222,11111222,11111222' 
TABS,ioos:station:wmo:42045:1,2012-05-03T09:30:00Z,26.2168,-96.4998,4.0,0.412310563,255.9637894,1.25,'11111222,11111222,11111222' 
TABS,ioos:station:wmo:42045:1,2012-05-03T10:00:00Z,26.2168,-96.4998,4.0,0.190262976,266.9872195,1.63,'11111222,11111222,11111222' 
TABS,ioos:station:wmo:42045:1,2012-05-03T10:30:00Z,26.2168,-96.4998,4.0,0.225610283,257.1957639,0.89,'11111222,11111222,11111222' 
TABS,ioos:station:wmo:42045:1,2012-05-03T11:00:00Z,26.2168,-96.4998,4.0,0.060827625,80.537279,0.63,'11111222,11111222,11111222' 
TABS,ioos:station:wmo:42045:1,2012-05-03T11:30:00Z,26.2168,-96.4998,4.0,0.180277564,93.1802436,1.06,'11111222,11111222,11111222' 
TABS,ioos:station:wmo:42045:1,2012-05-03T12:00:00Z,26.2168,-96.4998,4.0,0.0,0.0,0.39,'11111222,11111222,11111222' 
TABS,ioos:station:wmo:42045:1,2012-05-03T12:30:00Z,26.2168,-96.4998,4.0,0.086023253,125.5380156,0.74,'11111222,11111222,11111222' 
TABS,ioos:station:wmo:42045:1,2012-05-03T13:00:00Z,26.2168,-96.4998,4.0,0.493659802,263.0189589,2.11,'11111222,11111222,11111222' 
TABS,ioos:station:wmo:42045:1,2012-05-03T13:30:00Z,26.2168,-96.4998,4.0,0.357351368,252.0721222,2.74,'11111222,11111222,11111222' 
TABS,ioos:station:wmo:42045:1,2012-05-03T14:00:00Z,26.2168,-96.4998,4.0,0.320624391,266.423674,2.5,'11111222,11111222,11111222' 
TABS,ioos:station:wmo:42045:1,2012-05-03T14:30:00Z,26.2168,-96.4998,4.0,0.664830806,263.088789,3.5,'11111222,11111222,11111222' 
TABS,ioos:station:wmo:42045:1,2012-05-03T15:00:00Z,26.2168,-96.4998,4.0,1.017889974,259.2420581,3.57,'11111222,11111222,11111222' 
TABS,ioos:station:wmo:42045:1,2012-05-03T15:30:00Z,26.2168,-96.4998,4.0,1.377134707,264.1652246,3.07,'11111222,11111222,11111222' 
TABS,ioos:station:wmo:42045:1,2012-05-03T16:00:00Z,26.2168,-96.4998,4.0,0.544518136,262.6139741,2.53,'11111222,11111222,11111222' 
TABS,ioos:station:wmo:42045:1,2012-05-03T16:30:00Z,26.2168,-96.4998,4.0,0.264764046,79.11407748,1.97,'11111222,11111222,11111222' 
TABS,ioos:station:wmo:42045:1,2012-05-03T17:00:00Z,26.2168,-96.4998,4.0,0.544518136,262.6139741,2.54,'11111222,11111222,11111222' 
TABS,ioos:station:wmo:42045:1,2012-05-03T17:30:00Z,26.2168,-96.4998,4.0,0.391152144,265.6013049,2.6,'11111222,11111222,11111222' 
TABS,ioos:station:wmo:42045:1,2012-05-03T18:00:00Z,26.2168,-96.4998,4.0,0.070710678,81.86949574,2.56,'11111222,11111222,11111222' 
TABS,ioos:station:wmo:42045:1,2012-05-03T18:30:00Z,26.2168,-96.4998,4.0,0.152970585,78.68967306,2.06,'11111222,11111222,11111222' 
TABS,ioos:station:wmo:42045:1,2012-05-03T19:00:00Z,26.2168,-96.4998,4.0,0.380525952,266.9872195,3.14,'11111222,11111222,11111222' 
TABS,ioos:station:wmo:42045:1,2012-05-03T19:30:00Z,26.2168,-96.4998,4.0,0.230867928,85.02984998,1.84,'11111222,11111222,11111222' 
TABS,ioos:station:wmo:42045:1,2012-05-03T20:00:00Z,26.2168,-96.4998,4.0,0.16,90.00042092,2.35,'11111222,11111222,11111222' 
TABS,ioos:station:wmo:42045:1,2012-05-03T20:30:00Z,26.2168,-96.4998,4.0,0.25019992,87.7089744,1.88,'11111222,11111222,11111222' 
TABS,ioos:station:wmo:42045:1,2012-05-03T21:00:00Z,26.2168,-96.4998,4.0,0.29,90.00042092,2.22,'11111222,11111222,11111222' 
TABS,ioos:station:wmo:42045:1,2012-05-03T21:30:00Z,26.2168,-96.4998,4.0,0.381182371,85.48560118,2.18,'11111222,11111222,11111222' 
TABS,ioos:station:wmo:42045:1,2012-05-03T22:00:00Z,26.2168,-96.4998,4.0,0.351283361,94.89950191,3.59,'11111222,11111222,11111222' 
TABS,ioos:station:wmo:42045:1,2012-05-03T22:30:00Z,26.2168,-96.4998,4.0,0.29,90.00042092,1.63,'11111222,11111222,11111222' 
TABS,ioos:station:wmo:42045:1,2012-05-03T23:00:00Z,26.2168,-96.4998,4.0,0.322024844,64.23031172,1.3,'11111222,11111222,11111222' 
TABS,ioos:station:wmo:42045:1,2012-05-03T23:30:00Z,26.2168,-96.4998,4.0,0.382099463,96.00941282,2.09,'11111222,11111222,11111222' 
TABS,ioos:station:wmo:42045:1,2012-05-04T00:00:00Z,26.2168,-96.4998,4.0,0.21023796,87.27327446,1.47,'11111222,11111222,11111222' 
TABS,ioos:station:wmo:42045:1,2012-05-04T00:30:00Z,26.2168,-96.4998,4.0,0.233452351,99.86620479,1.53,'11111222,11111222,11111222' 
TABS,ioos:station:wmo:42045:1,2012-05-04T01:00:00Z,26.2168,-96.4998,4.0,0.148660687,109.654199,0.98,'11111222,11111222,11111222' 
TABS,ioos:station:wmo:42045:1,2012-05-04T01:30:00Z,26.2168,-96.4998,4.0,0.172626765,259.9920436,1.56,'11111222,11111222,11111222' 
TABS,ioos:station:wmo:42045:1,2012-05-04T02:00:00Z,26.2168,-96.4998,4.0,0.143178211,102.0951497,1.21,'11111222,11111222,11111222' 
TABS,ioos:station:wmo:42045:1,2012-05-04T02:30:00Z,26.2168,-96.4998,4.0,0.322800248,106.1895893,2.31,'11111222,11111222,11111222' 
TABS,ioos:station:wmo:42045:1,2012-05-04T03:00:00Z,26.2168,-96.4998,4.0,0.181107703,83.65940216,1.7,'11111222,11111222,11111222' 
TABS,ioos:station:wmo:42045:1,2012-05-04T03:30:00Z,26.2168,-96.4998,4.0,0.133416641,282.9945864,1.61,'11111222,11111222,11111222' 
TABS,ioos:station:wmo:42045:1,2012-05-04T04:00:00Z,26.2168,-96.4998,4.0,0.22,270.0,1.6,'11111222,11111222,11111222' 
TABS,ioos:station:wmo:42045:1,2012-05-04T04:30:00Z,26.2168,-96.4998,4.0,0.253179778,260.9097443,2.22,'11111222,11111222,11111222' 
TABS,ioos:station:wmo:42045:1,2012-05-04T05:00:00Z,26.2168,-96.4998,4.0,0.437378555,259.4608409,1.69,'11111222,11111222,11111222' 
TABS,ioos:station:wmo:42045:1,2012-05-04T05:30:00Z,26.2168,-96.4998,4.0,0.215870331,256.6075336,1.41,'11111222,11111222,11111222' 
TABS,ioos:station:wmo:42045:1,2012-05-04T06:00:00Z,26.2168,-96.4998,4.0,0.014142136,135.0003157,0.83,'11111222,11111222,11111222' 
TABS,ioos:station:wmo:42045:1,2012-05-04T06:30:00Z,26.2168,-96.4998,4.0,0.104403065,73.3003739,1.13,'11111222,11111222,11111222' 
TABS,ioos:station:wmo:42045:1,2012-05-04T07:00:00Z,26.2168,-96.4998,4.0,0.172626765,259.9920436,1.44,'11111222,11111222,11111222' 
TABS,ioos:station:wmo:42045:1,2012-05-04T07:30:00Z,26.2168,-96.4998,4.0,0.194164878,258.1113698,1.01,'11111222,11111222,11111222' 
TABS,ioos:station:wmo:42045:1,2012-05-04T08:00:00Z,26.2168,-96.4998,4.0,0.04,90.00042092,0.65,'11111222,11111222,11111222' 
TABS,ioos:station:wmo:42045:1,2012-05-04T08:30:00Z,26.2168,-96.4998,4.0,0.11045361,84.80516232,0.89,'11111222,11111222,11111222' 
TABS,ioos:station:wmo:42045:1,2012-05-04T09:00:00Z,26.2168,-96.4998,4.0,0.21023796,92.72672554,1.5,'11111222,11111222,11111222' 
TABS,ioos:station:wmo:42045:1,2012-05-04T09:30:00Z,26.2168,-96.4998,4.0,0.092195445,77.47080067,1.27,'11111222,11111222,11111222' 
TABS,ioos:station:wmo:42045:1,2012-05-04T10:00:00Z,26.2168,-96.4998,4.0,0.218403297,105.9457795,0.98,'11111222,11111222,11111222' 
TABS,ioos:station:wmo:42045:1,2012-05-04T10:30:00Z,26.2168,-96.4998,4.0,0.384707681,261.0273944,1.83,'11111222,11111222,11111222' 
TABS,ioos:station:wmo:42045:1,2012-05-04T11:00:00Z,26.2168,-96.4998,4.0,1.247878199,263.558415,2.43,'11111222,11111222,11111222' 
TABS,ioos:station:wmo:42045:1,2012-05-04T11:30:00Z,26.2168,-96.4998,4.0,0.66189123,265.6676961,1.73,'11111222,11111222,11111222' 
TABS,ioos:station:wmo:42045:1,2012-05-04T12:00:00Z,26.2168,-96.4998,4.0,0.212132034,261.8699167,1.54,'11111222,11111222,11111222' 
TABS,ioos:station:wmo:42045:1,2012-05-04T12:30:00Z,26.2168,-96.4998,4.0,0.05,90.00042092,1.37,'11111222,11111222,11111222' 
TABS,ioos:station:wmo:42045:1,2012-05-04T13:00:00Z,26.2168,-96.4998,4.0,0.05,126.8702323,3.12,'11111222,11111222,11111222' 
TABS,ioos:station:wmo:42045:1,2012-05-04T13:30:00Z,26.2168,-96.4998,4.0,0.092195445,102.5291993,3.15,'11111222,11111222,11111222' 
TABS,ioos:station:wmo:42045:1,2012-05-04T14:00:00Z,26.2168,-96.4998,4.0,0.212132034,98.13050426,2.67,'11111222,11111222,11111222' 
TABS,ioos:station:wmo:42045:1,2012-05-04T14:30:00Z,26.2168,-96.4998,4.0,0.177200451,106.3899229,2.41,'11111222,11111222,11111222' 
TABS,ioos:station:wmo:42045:1,2012-05-04T15:00:00Z,26.2168,-96.4998,4.0,1.09772492,263.1987011,2.91,'11111222,11111222,11111222' 
TABS,ioos:station:wmo:42045:1,2012-05-04T15:30:00Z,26.2168,-96.4998,4.0,1.427900557,263.9700053,3.7,'11111222,11111222,11111222' 
TABS,ioos:station:wmo:42045:1,2012-05-04T16:00:00Z,26.2168,-96.4998,4.0,2.171174797,264.1843871,3.92,'11111222,11111222,11111222' 
TABS,ioos:station:wmo:42045:1,2012-05-04T16:30:00Z,26.2168,-96.4998,4.0,1.698528775,264.2558551,3.84,'11111222,11111222,11111222' 
TABS,ioos:station:wmo:42045:1,2012-05-04T17:00:00Z,26.2168,-96.4998,4.0,1.454957044,265.2690724,4.04,'11111222,11111222,11111222' 
TABS,ioos:station:wmo:42045:1,2012-05-04T17:30:00Z,26.2168,-96.4998,4.0,1.276636205,264.1554478,3.75,'11111222,11111222,11111222' 
TABS,ioos:station:wmo:42045:1,2012-05-04T18:00:00Z,26.2168,-96.4998,4.0,1.767257763,264.8055832,4.25,'11111222,11111222,11111222' 
TABS,ioos:station:wmo:42045:1,2012-05-04T18:30:00Z,26.2168,-96.4998,4.0,0.41,257.3196462,3.65,'11111222,11111222,11111222' 
TABS,ioos:station:wmo:42045:1,2012-05-04T19:00:00Z,26.2168,-96.4998,4.0,0.134164079,243.4350109,2.16,'11111222,11111222,11111222' 
TABS,ioos:station:wmo:42045:1,2012-05-04T19:30:00Z,26.2168,-96.4998,4.0,0.401995025,264.2894202,3.4,'11111222,11111222,11111222' 
TABS,ioos:station:wmo:42045:1,2012-05-04T20:00:00Z,26.2168,-96.4998,4.0,0.192353841,98.97302655,2.67,'11111222,11111222,11111222' 
TABS,ioos:station:wmo:42045:1,2012-05-04T20:30:00Z,26.2168,-96.4998,4.0,0.181107703,276.3401769,2.81,'11111222,11111222,11111222' 
TABS,ioos:station:wmo:42045:1,2012-05-04T21:00:00Z,26.2168,-96.4998,4.0,0.378549865,77.79913889,1.77,'11111222,11111222,11111222' 
TABS,ioos:station:wmo:42045:1,2012-05-04T21:30:00Z,26.2168,-96.4998,4.0,0.282842712,81.86949574,1.94,'11111222,11111222,11111222' 
TABS,ioos:station:wmo:42045:1,2012-05-04T22:00:00Z,26.2168,-96.4998,4.0,0.31144823,95.52794814,2.15,'11111222,11111222,11111222' 
TABS,ioos:station:wmo:42045:1,2012-05-04T22:30:00Z,26.2168,-96.4998,4.0,0.274590604,79.5081266,1.8,'11111222,11111222,11111222' 
TABS,ioos:station:wmo:42045:1,2012-05-04T23:00:00Z,26.2168,-96.4998,4.0,0.400499688,92.86281945,1.86,'11111222,11111222,11111222' 
TABS,ioos:station:wmo:42045:1,2012-05-04T23:30:00Z,26.2168,-96.4998,4.0,0.40012498,88.56748625,2.15,'11111222,11111222,11111222' 